Miscellaneous Local Product
Issued by NWS Hastings, NE

Home | Current Version | Previous Version | Text Only | Print | Product List | Glossary Off
Versions: 1 2 3 4 5 6 7 8 9 10 11 12 13 14 15 16 17 18 19 20 21 22 23 24 25 26 27 28 29 30 31 32 33 34 35 36 37 38 39 40 41 42 43 44 45 46 47 48 49 50

000
AXUS43 KGID 012002
MISGRI

GID CWA HOURLY WEATHER ROUNDUP
NATIONAL WEATHER SERVICE HASTINGS NE
300 PM CDT SUN MAY 01 2016

NOTE: "FAIR" INDICATES FEW OR NO CLOUDS BELOW 12,000 FEET WITH NO
SIGNIFICANT WEATHER AND/OR OBSTRUCTIONS TO VISIBILITY.

...SOUTH CENTRAL NEBRASKA...

CITY           SKY/WX    TMP DP  RH WIND       PRES   REMARKS
GRAND ISLAND   CLOUDY    46  39  76 N17       30.19R
HASTINGS       CLOUDY    46  39  76 N15       30.18R
KEARNEY        CLOUDY    46  37  71 N16       30.20S
ORD            PTSUNNY   51  40  65 N15G26    30.19S
YORK           CLOUDY    46  41  81 N20       30.16R
AURORA         CLOUDY    47  43  86 N13       30.18R
LEXINGTON      CLOUDY    50  38  64 NE18      30.20S
HOLDREGE       CLOUDY    47  40  77 N21       30.19F
HEBRON         CLOUDY    48  40  75 N17       30.15R

...NEBRASKA PANHANDLE...

CITY           SKY/WX    TMP DP  RH WIND       PRES   REMARKS
CHADRON        MOSUNNY   55  30  38 N15       30.27F
ALLIANCE       MOSUNNY   42  32  67 NW7       30.26F
SCOTTSBLUFF    MOSUNNY   50  28  42 N14       30.28F
SIDNEY         SUNNY     43  30  60 N9        30.28F

...WESTERN AND NORTH CENTRAL NEBRASKA...

CITY           SKY/WX    TMP DP  RH WIND       PRES   REMARKS
VALENTINE      MOSUNNY   55  30  38 N17G24    30.24F
AINSWORTH      MOSUNNY   54  33  45 N22G30    30.22S
ONEILL         PTSUNNY   53  39  60 N14G20    30.20F
BROKEN BOW     PTSUNNY   53  38  56 NE20      30.19F
IMPERIAL       PTSUNNY   52  33  48 N25G33    30.22F
NORTH PLATTE   MOSUNNY   53  35  50 N22G28    30.21F
MCCOOK         CLOUDY    52  36  54 N21       30.18F

...EASTERN NEBRASKA...

CITY           SKY/WX    TMP DP  RH WIND       PRES   REMARKS
NORFOLK        CLOUDY    49  40  71 N16G23    30.16F
SO SIOUX CITY  CLOUDY    53  42  66 N15       30.15S
TEKAMAH        CLOUDY    49  44  83 N22       30.14S
COLUMBUS       CLOUDY    48  37  66 N16G22    30.16S
ALBION         CLOUDY    47  41  79 N17G24    30.18S
OMAHA EPPLEY   LGT RAIN  49  43  80 N18       30.12R
OFFUTT AFB     CLOUDY    48  45  87 N13G21    30.11R
MILLARD        CLOUDY    47  43  85 N8        30.13R
LINCOLN        CLOUDY    48  41  76 N16       30.14R
NEBRASKA CITY  CLOUDY    48  48  97 N17       30.09R
BEATRICE       CLOUDY    49  42  79 N16       30.12R
FALLS CITY     CLOUDY    51  45  79 N14G22    30.06S

...NORTHERN KANSAS...

CITY           SKY/WX    TMP DP  RH WIND       PRES   REMARKS
GOODLAND       CLOUDY    50  32  50 N21G36    30.19R
HILL CITY      CLOUDY    50  40  68 N15G22    30.18S
NORTON         CLOUDY    48  36  61 N20G25    30.16F
PHILLIPSBURG   CLOUDY    48  39  71 N16G26    30.16F
SMITH CENTER   CLOUDY    46  39  76 N23       30.16S
BELOIT         CLOUDY    46  37  71 N15G23    30.14R
HAYS           CLOUDY    48  34  57 N18       30.16S
RUSSELL        CLOUDY    50  40  68 N18       30.14R
CONCORDIA      CLOUDY    49  40  71 N12G21    30.13R
SALINA         CLOUDY    52  43  71 N20G29    30.13R
TOPEKA         CLOUDY    57  48  72 N10G21    30.05R



USA.gov is the U.S. government's official web portal to all federal, state and local government web resources and services.